Corvallis, OR

4:53 AM PDT on April 24, 2018 (GMT -0700)
Corvallis Municipal

Weather History for KCVO - April, 2013

Change the Weather History Date:

Sunday, April 7, 2013

  Actual Average Record
Temperature  
Mean Temperature 45 °F -  
Max Temperature 51 °F 57 °F 87 °F (2016)
Min Temperature 37 °F 38 °F 28 °F (2001)
Degree Days  
Heating Degree Days 20    
Moisture  
Dew Point 42 °F    
Average Humidity 83    
Maximum Humidity 100    
Minimum Humidity 62    
Precipitation  
Precipitation 0.09 in - - ()
Sea Level Pressure  
Sea Level Pressure 29.86 in    
Wind  
Wind Speed 13 mph (SW)    
Max Wind Speed 26 mph    
Max Gust Speed 40 mph    
Visibility 10 miles    
Events      
Averages and records for this station are not official NWS values.
T = Trace of Precipitation, MM = Missing Value Source: NWS Daily Summary

Daily Weather History Graph

Daily Weather History Graph

Search for Another Location

Airport or City:

Astronomy

Apr. 07, 2013 Rise Set
Actual Time 6:42 AM PDT 7:48 PM PDT
Civil Twilight 6:12 AM PDT 8:18 PM PDT
Nautical Twilight 5:37 AM PDT 8:54 PM PDT
Astronomical Twilight 4:59 AM PDT 9:31 PM PDT
Moon 5:09 AM PDT (4/7) 5:21 PM PDT (4/7)
Length of Visible Light 14h 05m
Length of Day
13h 05m
Waning Crescent, 7% of the Moon is Illuminated
Apr 7
Waning Crescent
Apr 10
New
Apr 18
First Quarter
Apr 25
Full
May 2
Last Quarter

Hourly Weather History & Observations

Time (PDT) Temp. Windchill Dew Point Humidity Pressure Visibility Wind Dir Wind Speed Gust Speed Precip Events Conditions
12:15 AM 48.2 °F - 48.2 °F 100% 29.73 in 7.0 mi SSE 15.0 mph - 0.01 in   Overcast
12:35 AM 48.2 °F - 48.2 °F 100% 29.72 in 10.0 mi SE 15.0 mph - 0.01 in   Mostly Cloudy
12:55 AM 48.2 °F - 46.4 °F 93% 29.69 in 10.0 mi SE 19.6 mph - 0.01 in   Overcast
1:15 AM 48.2 °F - 46.4 °F 93% 29.68 in 10.0 mi SSE 20.7 mph 29.9 mph N/A   Overcast
1:35 AM 48.2 °F - 46.4 °F 93% 29.67 in 10.0 mi SSE 18.4 mph 25.3 mph N/A   Overcast
1:55 AM 48.2 °F - 48.2 °F 100% 29.67 in 10.0 mi SSE 18.4 mph 24.2 mph N/A   Overcast
2:15 AM 48.2 °F - 48.2 °F 100% 29.67 in 10.0 mi SE 16.1 mph 23.0 mph N/A   Overcast
2:35 AM 50.0 °F - 48.2 °F 94% 29.66 in 10.0 mi SE 17.3 mph 24.2 mph N/A   Overcast
2:55 AM 51.8 °F - 48.2 °F 88% 29.66 in 10.0 mi SSE 15.0 mph - N/A   Overcast
3:15 AM 51.8 °F - 46.4 °F 82% 29.66 in 10.0 mi South 12.7 mph - N/A   Overcast
3:35 AM 51.8 °F - 46.4 °F 82% 29.66 in 10.0 mi SSE 15.0 mph 20.7 mph N/A   Overcast
3:55 AM 51.8 °F - 46.4 °F 82% 29.68 in 10.0 mi South 15.0 mph 23.0 mph N/A   Overcast
4:15 AM 51.8 °F - 44.6 °F 76% 29.69 in 10.0 mi South 17.3 mph 40.3 mph N/A   Overcast
4:35 AM 50.0 °F - 46.4 °F 87% 29.72 in 10.0 mi SSW 10.4 mph 20.7 mph N/A   Overcast
4:55 AM 50.0 °F - 44.6 °F 82% 29.74 in 10.0 mi SW 13.8 mph 25.3 mph N/A   Mostly Cloudy
5:15 AM 48.2 °F - 44.6 °F 87% 29.75 in 10.0 mi SW 9.2 mph 16.1 mph N/A   Overcast
5:35 AM 48.2 °F - 42.8 °F 82% 29.78 in 10.0 mi South 4.6 mph - N/A   Overcast
5:55 AM 48.2 °F - 42.8 °F 82% 29.79 in 10.0 mi South 10.4 mph - N/A   Overcast
6:15 AM 46.4 °F 41.9 °F 42.8 °F 87% 29.80 in 10.0 mi SSW 9.2 mph - N/A   Overcast
6:35 AM 46.4 °F 42.4 °F 42.8 °F 87% 29.81 in 10.0 mi SSW 8.1 mph - N/A   Overcast
6:55 AM 46.4 °F 43.5 °F 42.8 °F 87% 29.82 in 10.0 mi SSW 5.8 mph - 0.01 in   Overcast
7:15 AM 46.4 °F 44.3 °F 42.8 °F 87% 29.82 in 10.0 mi South 4.6 mph - N/A   Overcast
7:35 AM 46.4 °F 42.4 °F 42.8 °F 87% 29.83 in 10.0 mi SSE 8.1 mph - N/A   Mostly Cloudy
7:55 AM 48.2 °F - 42.8 °F 82% 29.84 in 10.0 mi South 10.4 mph - N/A   Overcast
8:15 AM 48.2 °F - 42.8 °F 82% 29.85 in 10.0 mi South 16.1 mph 23.0 mph N/A   Overcast
8:55 AM 48.2 °F - 42.8 °F 82% 29.86 in 10.0 mi South 15.0 mph 19.6 mph N/A   Overcast
9:15 AM 48.2 °F - 42.8 °F 82% 29.87 in 10.0 mi South 13.8 mph 18.4 mph N/A   Overcast
9:35 AM 48.2 °F - 42.8 °F 82% 29.87 in 10.0 mi South 13.8 mph - N/A   Overcast
9:55 AM 48.2 °F - 42.8 °F 82% 29.88 in 10.0 mi South 13.8 mph - N/A   Mostly Cloudy
10:15 AM 48.2 °F - 44.6 °F 87% 29.88 in 10.0 mi South 15.0 mph - N/A   Overcast
10:35 AM 48.2 °F - 42.8 °F 82% 29.89 in 10.0 mi South 13.8 mph 20.7 mph N/A   Overcast
10:55 AM 48.2 °F - 42.8 °F 82% 29.89 in 10.0 mi South 12.7 mph 19.6 mph N/A   Overcast
11:15 AM 46.4 °F 40.4 °F 42.8 °F 87% 29.90 in 10.0 mi SW 13.8 mph 21.9 mph 0.02 in   Overcast
11:35 AM 46.4 °F 40.7 °F 44.6 °F 93% 29.91 in 10.0 mi South 12.7 mph - 0.04 in   Overcast
11:55 AM 48.2 °F - 44.6 °F 87% 29.90 in 10.0 mi South 17.3 mph - 0.04 in   Overcast
12:15 PM 46.4 °F 39.5 °F 42.8 °F 87% 29.91 in 6.0 mi SW 17.3 mph 25.3 mph 0.02 in   Overcast
12:35 PM 48.2 °F - 44.6 °F 87% 29.90 in 10.0 mi WSW 9.2 mph - 0.02 in   Mostly Cloudy
12:55 PM 48.2 °F - 42.8 °F 82% 29.92 in 10.0 mi SW 26.5 mph 33.4 mph 0.02 in   Overcast
1:15 PM 46.4 °F 41.1 °F 41.0 °F 81% 29.90 in 10.0 mi WSW 11.5 mph 25.3 mph 0.01 in   Mostly Cloudy
1:35 PM 50.0 °F - 41.0 °F 71% 29.91 in 10.0 mi WSW 11.5 mph 21.9 mph 0.01 in   Scattered Clouds
1:55 PM 50.0 °F - 41.0 °F 71% 29.91 in 10.0 mi WSW 10.4 mph 21.9 mph 0.01 in   Mostly Cloudy
2:15 PM 48.2 °F - 41.0 °F 76% 29.91 in 10.0 mi SW 11.5 mph 21.9 mph N/A   Overcast
2:35 PM 48.2 °F - 39.2 °F 71% 29.92 in 10.0 mi SW 11.5 mph 19.6 mph N/A   Scattered Clouds
2:55 PM 51.8 °F - 39.2 °F 62% 29.91 in 10.0 mi SW 8.1 mph - N/A   Scattered Clouds
3:15 PM 51.8 °F - 41.0 °F 67% 29.91 in 10.0 mi SW 9.2 mph - N/A   Mostly Cloudy
3:35 PM 51.8 °F - 42.8 °F 71% 29.92 in 10.0 mi SSW 11.5 mph - N/A   Overcast
3:55 PM 50.0 °F - 39.2 °F 66% 29.92 in 10.0 mi SW 6.9 mph - N/A   Overcast
4:15 PM 48.2 °F - 41.0 °F 76% 29.92 in 10.0 mi West 9.2 mph - N/A   Overcast
4:35 PM 46.4 °F 42.4 °F 41.0 °F 81% 29.92 in 10.0 mi WSW 8.1 mph - N/A   Mostly Cloudy
4:55 PM 48.2 °F - 41.0 °F 76% 29.91 in 10.0 mi West 5.8 mph - N/A   Mostly Cloudy
5:15 PM 48.2 °F - 39.2 °F 71% 29.92 in 10.0 mi West 5.8 mph - N/A   Mostly Cloudy
5:35 PM 46.4 °F 41.5 °F 39.2 °F 76% 29.92 in 10.0 mi West 10.4 mph - N/A   Mostly Cloudy
5:55 PM 46.4 °F 41.5 °F 39.2 °F 76% 29.92 in 10.0 mi WSW 10.4 mph - N/A   Overcast
6:15 PM 46.4 °F 42.4 °F 39.2 °F 76% 29.92 in 10.0 mi WSW 8.1 mph - N/A   Mostly Cloudy
6:35 PM 46.4 °F 44.3 °F 39.2 °F 76% 29.93 in 10.0 mi WSW 4.6 mph - N/A   Mostly Cloudy
6:55 PM 46.4 °F 43.5 °F 39.2 °F 76% 29.93 in 10.0 mi West 5.8 mph - N/A   Overcast
7:15 PM 44.6 °F 39.7 °F 39.2 °F 81% 29.93 in 10.0 mi West 9.2 mph - N/A   Overcast
7:35 PM 44.6 °F 42.2 °F 39.2 °F 81% 29.94 in 10.0 mi West 4.6 mph - N/A   Overcast
7:55 PM 44.6 °F 41.4 °F 39.2 °F 81% 29.93 in 10.0 mi West 5.8 mph - N/A   Overcast
8:15 PM 44.6 °F 40.7 °F 39.2 °F 81% 29.94 in 10.0 mi West 6.9 mph - N/A   Overcast
8:35 PM 42.8 °F 38.6 °F 39.2 °F 87% 29.94 in 10.0 mi West 6.9 mph - N/A   Mostly Cloudy
8:55 PM 42.8 °F 41.1 °F 39.2 °F 87% 29.96 in 10.0 mi West 3.5 mph - N/A   Mostly Cloudy
9:15 PM 42.8 °F 39.3 °F 37.4 °F 81% 29.97 in 10.0 mi West 5.8 mph - N/A   Scattered Clouds
9:35 PM 41.0 °F 39.0 °F 37.4 °F 87% 29.97 in 10.0 mi West 3.5 mph - N/A   Scattered Clouds
9:55 PM 41.0 °F 39.0 °F 37.4 °F 87% 29.98 in 10.0 mi WSW 3.5 mph - N/A   Partly Cloudy
10:15 PM 39.2 °F 35.9 °F 37.4 °F 93% 29.98 in 10.0 mi WSW 4.6 mph - N/A   Partly Cloudy
10:35 PM 39.2 °F 35.0 °F 35.6 °F 87% 29.99 in 10.0 mi West 5.8 mph - N/A   Mostly Cloudy
10:55 PM 39.2 °F 35.0 °F 37.4 °F 93% 30.00 in 10.0 mi West 5.8 mph - N/A   Mostly Cloudy
11:15 PM 39.2 °F 35.0 °F 37.4 °F 93% 30.00 in 10.0 mi West 5.8 mph - N/A   Mostly Cloudy
11:35 PM 39.2 °F 35.9 °F 35.6 °F 87% 30.00 in 10.0 mi SW 4.6 mph - N/A   Partly Cloudy
11:55 PM 37.4 °F 34.9 °F 35.6 °F 93% 30.02 in 10.0 mi SSW 3.5 mph - N/A   Partly Cloudy